Location: Newark
(13.5236°S, 71.9791°W)
Time: 17:57:42
(UTC+00:00)

XW-2F - Visible Passes

Search period start: 23 September 2019 00:00
Search period end: 03 October 2019 00:00
Orbit: 504 x 523 km, 97.5° (Epoch: 23 September)

Date Brightness Start Highest point End Pass type
(mag) Time Alt. Az. Time Alt. Az. Time Alt. Az.
24 Sep ? 10:08:22 10° NNE 10:11:56 47° ESE 10:15:31 10° S visible
24 Sep ? 23:28:47 10° SW 23:31:01 15° WSW 23:33:17 10° WNW visible
25 Sep ? 09:53:23 10° NE 09:56:31 27° ESE 09:59:40 10° SSE visible
25 Sep ? 23:12:28 10° SSW 23:15:39 25° WSW 23:18:49 10° NW visible
26 Sep ? 09:38:50 10° ENE 09:41:08 16° ESE 09:43:25 10° SE visible
30 Sep ? 10:09:29 10° NNE 10:13:03 49° ESE 10:16:40 10° S visible
30 Sep ? 23:30:01 10° SW 23:32:10 15° WSW 23:34:20 10° WNW visible
01 Oct ? 09:54:27 10° NE 09:57:38 28° ESE 10:00:51 10° SSE visible
01 Oct ? 23:13:39 10° SSW 23:16:47 24° WSW 23:19:54 10° NW visible
02 Oct ? 09:39:51 10° ENE 09:42:14 16° ESE 09:44:38 10° SE visible
